This is the latest recevied weather packets stored in our database for station/object KB0BS-13. If no packets are shown the sender has not sent any weather packets the latest 10 day(s).
| Time | Temp. | Humidity | Pressure | Rain* | Wind** | Luminosity | Snow |
|---|---|---|---|---|---|---|---|
| 1777984607 | 3.33° C | 72% | 1004 hPa | 0 mm | - | 229 W/m² | - |
| 1777984304 | 3.33° C | 71% | 1004 hPa | 0 mm | - | 216 W/m² | - |
| 1777984001 | 3.33° C | 71% | 1004 hPa | 0 mm | - | 202 W/m² | - |
| 1777983698 | 3.33° C | 73% | 1004 hPa | 0 mm | - | 187 W/m² | - |
| 1777983394 | 2.78° C | 72% | 1003.9 hPa | 0 mm | - | 174 W/m² | - |
| 1777983091 | 3.33° C | 70% | 1003.9 hPa | 0 mm | - | 162 W/m² | - |
| 1777982788 | 2.78° C | 71% | 1003.9 hPa | 0 mm | - | 149 W/m² | - |
| 1777982484 | 2.78° C | 73% | 1003.8 hPa | 0 mm | - | 136 W/m² | - |
| 1777982183 | 2.78° C | 73% | 1003.7 hPa | 0 mm | - | 123 W/m² | - |
| 1777981881 | 2.78° C | 75% | 1003.6 hPa | 0 mm | - | 112 W/m² | - |
| 1777981578 | 2.78° C | 75% | 1003.7 hPa | 0 mm | - | 101 W/m² | - |
| 1777981274 | 2.78° C | 76% | 1003.8 hPa | 0 mm | - | 90 W/m² | - |
| 1777980971 | 2.78° C | 77% | 1003.4 hPa | 0 mm | - | 79 W/m² | - |
| 1777980668 | 2.22° C | 78% | 1003.5 hPa | 0 mm | - | 71 W/m² | - |
| 1777980365 | 2.22° C | 80% | 1003.3 hPa | 0 mm | - | 61 W/m² | - |
| 1777980063 | 2.22° C | 81% | 1003.2 hPa | 0 mm | - | 53 W/m² | - |
| 1777979761 | 2.22° C | 83% | 1003.1 hPa | 0 mm | - | 45 W/m² | - |
| 1777979458 | 1.67° C | 84% | 1003.1 hPa | 0 mm | - | 39 W/m² | - |
| 1777979154 | 1.67° C | 85% | 1003.1 hPa | 0 mm | - | 32 W/m² | - |
| 1777978851 | 1.67° C | 85% | 1002.8 hPa | 0 mm | - | 27 W/m² | - |
| 1777978548 | 1.67° C | 84% | 1002.7 hPa | 0 mm | - | 22 W/m² | - |
| 1777978244 | 1.67° C | 85% | 1002.6 hPa | 0 mm | - | 18 W/m² | - |
| 1777977941 | 1.67° C | 84% | 1002.6 hPa | 0 mm | - | 14 W/m² | - |
| 1777977639 | 1.67° C | 84% | 1002.3 hPa | 0 mm | - | 8 W/m² | - |
| 1777977335 | 1.67° C | 84% | 1002.3 hPa | 0 mm | - | 8 W/m² | - |
* Rain latest hour (hover to see other rain measurements)
** Current wind speed in m/s (hover to see current wind gust speed)